Location: Guayaquil
(2.1667°S, 79.9000°W)
Time: 21:59:26
(UTC-05:00)

OTV 5 (USA 277) - Visible Passes

Search period start: 20 November 2017 00:00
Search period end: 30 November 2017 00:00
Orbit: 404 x 417 km, 43.0° (Epoch: 07 September)

Date Brightness Start Highest point End Pass type
(mag) Time Alt. Az. Time Alt. Az. Time Alt. Az.
20 Nov ? 19:51:02 10° SSW 19:52:09 17° S 19:52:09 17° S visible
21 Nov ? 19:01:03 10° SSE 19:02:50 14° SE 19:03:51 12° ESE visible
22 Nov ? 19:45:41 10° SW 19:48:23 49° W 19:48:23 49° W visible
23 Nov ? 18:54:39 10° SW 18:57:59 57° SE 19:00:11 19° ENE visible
24 Nov ? 19:42:16 10° WNW 19:44:06 14° NW 19:44:48 13° NNW visible
25 Nov ? 18:50:09 10° WSW 18:53:04 27° NW 18:55:58 10° NNE visible
27 Nov ? 05:34:09 10° NNW 05:37:19 47° NE 05:40:29 10° ESE visible
28 Nov ? 04:45:00 18° NNE 04:46:17 22° NE 04:48:56 10° E visible
29 Nov ? 05:29:34 11° WNW 05:32:24 30° SW 05:35:22 10° SSE visible
